This demonstration page uses our WeatherBlox Daily Observations layout. Learn more.

Left ArrowRight Arrow

39.01783, -85.05884

Hourly Observations for October 13, 2018

Temp ( °F °C ) Dew Point ( °F °C ) Humidity (%) Winds ( mph kmh ) Pressure ( in mb ) Visibility ( mi km ) Precip ( " mm )
12:52 am 00:52 Cloudy 41 5 39 3.9 93 93 NW 7 11 29.93 1014 10 16 N/A
12:59 am 00:59 Cloudy 41 5 39 3.9 93 93 WNW 9 15 29.97 1015 10 16 N/A
1:52 am 01:52 Cloudy 41 5 39 3.9 93 93 WNW 15 24 29.96 1014 10 16 N/A
2:08 am 02:08 Cloudy 41 5 38 3.3 89 89 WNW 13 20 30.00 1016 10 16 N/A
2:52 am 02:52 Cloudy 41 5 38 3.3 89 89 WNW 9 15 29.97 1015 10 16 N/A
3:36 am 03:36 Cloudy 41 5 36 2.2 82 82 NW 13 20 30.00 1016 10 16 N/A
3:52 am 03:52 Cloudy 41 5 36 2.2 82 82 NW 10 17 29.97 1015 10 16 N/A
4:52 am 04:52 Cloudy 41 5 36 2.2 82 82 NW 9 15 29.99 1016 10 16 N/A
5:52 am 05:52 Cloudy 41 5 36 2.2 82 82 WNW 7 11 30.00 1016 10 16 N/A
6:52 am 06:52 Cloudy 41 5 35 1.7 79 79 WNW 10 17 30.04 1017 10 16 N/A
7:52 am 07:52 Cloudy 41 5 36 2.2 82 82 NW 6 9 30.06 1018 10 16 N/A
8:52 am 08:52 Cloudy 41 5 35 1.7 79 79 NNW 8 13 30.08 1019 10 16 N/A
9:52 am 09:52 Cloudy 41 5 36 2.2 82 82 WNW 5 7 30.10 1019 10 16 N/A
10:52 am 10:52 Cloudy 41 5 36 2.2 82 82 NW 3 6 30.11 1020 10 16 N/A
11:52 am 11:52 Cloudy 43 6.1 36 2.2 76 76 N N/A 30.12 1020 10 16 N/A
12:52 pm 12:52 Cloudy 44 6.7 37 2.8 76 76 VRB 3 6 30.11 1020 10 16 N/A
1:52 pm 13:52 Mostly Cloudy 47 8.3 37 2.8 69 69 N N/A 30.09 1019 10 16 N/A
2:27 pm 14:27 Partly Cloudy 47 8.3 36 2.2 66 66 N N/A 30.12 1020 10 16 N/A
2:46 pm 14:46 Mostly Cloudy 48 9 39 4 71 71 VRB 6 9 30.12 1020 10 16 N/A
2:52 pm 14:52 Mostly Cloudy 49 9.4 38 3.3 66 66 VRB 6 9 30.07 1018 10 16 N/A
3:17 pm 15:17 Partly Cloudy 50 10 38 3.3 63 63 SE 5 7 30.06 1018 10 16 N/A
3:52 pm 15:52 Partly Cloudy 50 10 38 3.3 63 63 SSW 7 11 30.07 1018 10 16 N/A
4:52 pm 16:52 Partly Cloudy 50 10 38 3.3 63 63 S 7 11 30.06 1018 10 16 N/A
5:52 pm 17:52 Mostly Cloudy 50 10 38 3.3 63 63 S 6 9 30.05 1018 10 16 N/A
6:52 pm 18:52 Mostly Cloudy 46 7.8 39 3.9 77 77 S 8 13 30.06 1018 10 16 N/A
7:52 pm 19:52 Cloudy 44 6.7 39 3.9 83 83 S 5 7 30.08 1019 10 16 N/A
8:52 pm 20:52 Cloudy 44 6.7 40 4.4 85 85 S 5 7 30.09 1019 10 16 N/A
9:52 pm 21:52 Cloudy 45 7.2 40 4.4 83 83 SSE 6 9 30.09 1019 10 16 N/A
10:52 pm 22:52 Cloudy 45 7.2 39 3.9 80 80 ESE 9 15 30.09 1019 10 16 N/A
11:52 pm 23:52 Cloudy 45 7.2 40 4.4 83 83 SSE 7 11 30.10 1019 10 16 N/A

Powered by AerisWeather